Lid_Strength_Index
6 5 5 5 6 7 6 6 6 6 6 6 6 6 5 5 5 5 5 4 6 8 7 6 5 7 8 9 11 7 7 7 8 12 11 11 12 10 10 9 11 13 14 14 13 15 18 7 9 13 9 7 7 7
6 5 5 6 7 7 7 6 6 6 6 6 6 6 6 6 5 5 7 4 2 6 7 4 4 4 5 6 7 7 7 8 7 9 10 10 11 10 11 15 7 11 10 14 14 13 7 7 8 7 6 7 7 7
5 5 5 7 7 8 8 8 7 7 6 6 6 6 6 6 5 5 7 5 5 7 7 6 6 2 1 2 3 8 7 5 5 4 8 10 12 9 13 11 10 8 6 10 10 9 8 7 6 5 6 6 6 6
5 5 6 7 8 8 8 8 8 7 6 6 6 6 5 5 5 5 6 5 5 7 10 7 3 3 2 2 3 3 3 3 3 4 8 9 11 7 10 9 10 8 7 8 9 7 7 7 6 6 7 6 6 6
5 6 7 8 8 8 9 9 9 8 7 7 6 5 5 5 5 5 5 4 4 8 10 8 5 2 2 2 3 3 3 4 6 7 9 10 8 8 8 8 9 7 7 9 12 7 8 8 7 7 8 8 7 7
6 7 8 8 9 9 9 9 9 8 7 7 6 5 5 5 5 6 8 4 4 5 10 11 4 4 2 2 3 3 4 5 5 8 8 7 5 8 11 12 6 6 4 4 7 5 5 6 6 7 9 8 7 6
7 7 8 9 9 9 9 9 9 8 8 7 6 5 5 5 5 7 7 6 5 5 9 10 8 4 2 2 3 4 3 5 6 8 8 7 6 7 9 11 6 5 4 4 3 4 6 6 8 7 8 8 7 7
8 8 9 9 9 9 9 9 9 8 7 7 6 6 6 5 5 6 4 4 4 6 7 10 9 6 2 5 7 4 6 6 6 7 7 8 7 8 11 6 6 5 4 4 4 4 5 6 7 8 8 9 9 9
9 9 9 9 9 10 9 9 8 7 7 7 6 5 5 5 7 5 3 3 4 6 9 9 9 10 3 5 5 5 5 10 6 9 9 7 9 11 7 6 6 5 5 5 4 4 6 8 9 9 10 10 10 9
9 9 9 9 10 10 9 9 8 8 7 7 6 5 6 4 6 5 5 6 7 7 8 9 5 8 5 5 6 7 6 9 12 8 6 9 9 5 4 4 4 4 3 3 5 6 7 8 9 9 10 10 9 10
10 10 10 10 10 10 9 9 9 8 7 7 8 8 6 5 6 6 8 8 9 10 8 7 6 8 4 8 8 6 8 8 12 9 9 9 8 7 5 5 3 3 3 3 3 4 6 8 9 10 10 10 11 10
9 10 10 10 9 9 9 9 9 8 8 8 8 7 7 8 9 10 10 7 8 9 7 7 7 5 5 4 7 7 9 8 12 5 8 10 8 5 4 4 4 3 3 3 3 4 6 8 8 9 10 11 12 11
9 10 10 9 9 9 9 9 8 8 7 6 8 11 10 9 13 12 12 9 8 6 6 6 7 7 6 5 8 8 11 11 6 8 9 7 5 4 4 4 4 3 3 3 3 4 5 6 8 10 10 10 10 11
10 10 9 9 9 9 9 9 8 7 7 9 11 13 12 12 10 8 9 8 6 6 7 6 8 8 7 9 8 11 8 6 11 12 11 6 5 4 4 4 4 4 3 3 4 4 5 5 7 9 10 9 10 11
10 10 9 9 9 9 9 8 7 6 8 11 11 14 11 9 7 7 4 4 4 4 5 6 6 7 10 11 10 10 11 12 11 10 8 5 4 4 4 4 4 3 3 3 3 4 4 5 5 8 9 9 11 11
10 10 9 10 9 8 7 7 6 7 9 10 11 12 9 10 9 8 6 5 3 4 4 4 7 10 11 10 12 12 12 15 10 6 5 4 4 3 3 4 4 3 3 2 3 3 4 4 5 6 9 9 11 12
10 9 10 9 8 7 7 7 9 11 11 11 10 8 8 9 9 7 5 4 2 4 7 7 11 11 9 12 13 9 12 10 7 6 5 4 3 3 3 3 3 3 3 2 2 3 3 3 3 5 7 8 9 11
9 8 9 8 7 6 6 7 9 9 12 9 10 9 8 7 6 5 3 3 3 5 5 8 6 10 12 13 12 9 8 6 6 5 5 4 3 3 2 3 3 3 3 2 2 2 3 3 4 4 4 5 5 7
9 8 8 8 8 7 8 8 7 11 9 8 7 7 6 5 3 2 3 2 2 3 5 5 8 11 10 8 9 8 6 6 6 5 4 3 3 3 2 2 2 2 2 2 2 3 3 2 3 3 4 4 5 5
9 8 9 8 8 7 11 8 5 9 9 7 6 7 5 4 3 3 3 3 2 3 6 9 9 8 8 6 5 5 5 5 5 6 5 4 4 3 2 2 3 2 2 2 2 4 2 3 3 3 3 4 4 5
9 8 8 7 6 6 7 7 8 6 6 7 6 5 5 3 5 5 5 4 5 7 8 7 8 6 5 5 5 5 5 5 6 5 5 5 3 3 3 3 2 3 3 2 3 3 4 3 3 3 3 4 4 4
7 8 6 6 7 7 7 5 6 6 6 6 6 5 5 5 6 6 4 7 8 7 7 7 7 7 6 6 6 5 5 5 4 4 6 5 4 4 3 3 4 4 2 3 2 2 2 2 2 3 3 4 4 4
8 7 6 7 9 9 9 4 8 7 9 8 6 7 6 6 5 4 7 6 6 5 5 6 7 6 6 5 5 5 6 7 6 6 6 5 3 3 3 3 3 3 4 3 1 3 2 5 4 3 3 3 4 5
8 8 10 9 9 10 6 7 5 6 7 8 8 8 7 6 4 5 8 7 6 5 6 7 7 7 7 7 7 7 7 8 8 7 6 6 7 5 2 3 2 3 2 3 3 2 1 1 4 2 2 3 3 4
11 12 10 12 8 9 10 9 9 8 10 9 9 8 6 3 6 7 9 8 7 7 7 7 7 7 8 8 8 8 7 8 9 8 6 7 8 7 6 5 2 1 1 2 3 3 2 1 1 2 2 2 3 3
14 11 11 9 8 9 8 11 10 10 9 10 8 5 4 5 9 10 8 7 7 7 7 7 8 8 8 8 8 8 7 6 8 8 7 7 8 9 9 8 8 7 4 2 2 3 2 2 2 2 2 3 7 3
13 12 8 5 5 6 7 6 5 7 10 10 7 7 6 10 10 8 6 6 7 6 5 5 6 7 7 7 6 6 6 5 6 7 5 6 7 8 9 10 10 8 7 3 2 2 3 2 2 2 2 1 2 2
9 7 9 7 6 5 8 7 8 9 8 5 6 9 11 10 10 7 6 5 5 5 5 5 5 5 5 5 6 6 6 6 5 5 5 5 6 7 7 8 7 10 7 5 3 2 3 2 2 2 2 2 1 1
8 5 5 7 7 7 7 7 6 5 4 4 6 7 8 6 6 7 6 5 4 5 6 6 6 5 5 5 5 6 6 7 8 10 10 10 10 8 7 7 8 7 6 6 7 7 5 4 2 1 1 1 1 1
6 4 6 6 8 8 5 4 4 3 3 4 4 5 7 7 5 4 4 5 6 6 6 6 6 6 7 7 7 6 5 6 7 9 11 10 9 8 7 7 7 7 6 6 7 5 7 5 4 1 2 2 3 3
5 5 6 6 6 4 4 3 2 2 2 3 3 5 7 7 6 6 6 5 5 6 7 7 7 7 7 8 8 7 7 6 6 7 7 7 7 8 7 7 6 6 6 7 8 8 7 7 6 4 2 3 4 5
5 6 6 7 6 4 3 4 4 5 4 5 5 5 6 7 8 7 7 6 7 8 8 7 7 7 6 6 6 6 8 6 7 8 8 8 8 8 7 6 6 6 7 7 8 10 10 10 10 9 8 7 6 6
5 5 5 6 6 6 4 5 5 6 6 6 6 5 5 7 9 7 5 5 6 7 7 6 5 5 5 5 5 5 6 6 8 10 9 9 10 9 8 7 6 6 7 8 8 9 11 11 12 12 12 11 11 10